Hourly Data Report for February 02, 2015

All times are specified in Local Standard Time (LST). Add 1 hour to adjust for Daylight Saving Time where and when it is observed.

GERALDTON A
ONTARIO

49°46'58.090" N
86°55'50.050" W
348.40 m
6042716
71834
YGQ

Download Data

Hourly Data (February 2015)
Hourly Data Report for February 2, 2015
Temp Definition
°C
Dew Point Temp Definition
°C
Rel Hum Definition
%
Wind Dir Definition
10's deg

Wind Spd Definition
km/h
Visibility Definition
km
Stn Press Definition
kPa
Hmdx Definition


Wind Chill Definition


Weather Definition


TIME
00:00 -29.1 -32.0 76 26 7 24.1 97.87   -36 Clear
01:00 -31.7 -34.3 78   0 24.1 97.81     Clear
02:00 -31.7 -34.6 75 26 6 24.1 97.73   -38 Clear
03:00 -32.4 -35.3 75 26 4 24.1 97.66   -37 Clear
04:00 -32.8 -35.6 76 25 4 24.1 97.63   -38 Clear
05:00 -31.8 -34.5 77 26 6 24.1 97.56   -39 Clear
06:00 -31.5 -34.4 75 26 6 24.1 97.51   -38 Clear
07:00 -29.5 -32.3 77 23 9 24.1 97.44   -38 Clear
08:00 -27.8 -30.7 76 25 13 24.1 97.36   -38 Mostly Cloudy
09:00 -28.2 -31.2 75 25 9 24.1 97.35   -36 Mostly Cloudy
10:00 -26.0 -29.0 76 23 7 24.1 97.29   -33 Cloudy
11:00 -23.9 -27.0 76 24 15 24.1 97.24   -34 Snow
12:00 -20.8 -25.5 66 24 13 24.1 97.15   -29 Mainly Clear
13:00 -19.0 -25.3 57 25 20 24.1 97.07   -29 Mainly Clear
14:00 -17.6 -24.6 54 29 22 24.1 96.97   -28 Mainly Clear
15:00 -16.8 -23.7 55 24 24 24.1 96.91   -27 Mainly Clear
16:00 -17.4 -23.0 62 25 20 24.1 96.88   -27 Mainly Clear
17:00 -18.2 -22.8 67 25 15 24.1 96.90   -27 Mainly Clear
18:00 -19.3 -22.6 75 26 9 24.1 96.90   -26 Snow
19:00 -21.0 -23.3 82 25 7 24.1 96.92   -27 Ice Crystals
20:00 -22.4 -24.6 82 26 7 24.1 96.91   -28 Clear
21:00 -24.3 -26.4 83 24 13 24.1 96.89   -34 Clear
22:00 -22.5 -24.8 81 26 9 24.1 96.88   -30 Clear
23:00 -23.2 -25.4 82 26 9 24.1 96.89   -31 Clear

Notes on Data Quality.

Legend

  • E = Estimated
  • M = Missing
  • NA = Not Available
  • ‡ = Partner data that is not subject to review by the National Climate Archives
Date modified: